[[{"header":{"parameterUnit":"m.s-1","parameterCategory":1,"la1":30.2991,"la2":30.254,"lo1":-89.0895,"lo2":-89.0444,"dy":0.0017,"dx":0.0017,"nx":28,"ny":28,"refTime":"2024-09-04T03:00:00:Z","depth":0,"parameterNumber":2,"parameterNumberName":"U-component_of_WINDS"},"data":[0,0,0,0,0,0,0,0,0,0,0,0,0,0,0,0,0,0,0,0,0,0,0,0,0,0,0,0,0,0,0,0,0,0,0,0,0,0,0,0,0,0,0,0,0,0,0,0,0,0,0,0,0,0,0,0,0,0,-5.3417,-5.3416,0,-5.3318,-5.3317,-5.3316,-5.305,-5.3044,-5.3038,-5.3033,-5.2942,-5.2944,-5.2947,0,0,0,0,0,0,0,0,0,0,0,0,0,-5.3382,-5.3384,-5.3417,-5.3416,-5.3414,-5.3319,-5.3317,-5.3316,-5.3051,-5.3044,-5.3037,-5.303,-5.2941,-5.2944,-5.2948,0,0,0,0,0,0,0,0,0,0,0,0,0,-5.3352,-5.3384,-5.3417,-5.327,-5.3256,-5.3319,-5.3317,-5.3316,-5.3052,-5.3043,-5.3035,-5.3027,-5.2939,-5.2944,-5.2948,-5.3149,0,0,-5.2962,-5.2964,0,0,0,0,0,0,0,0,-5.3354,-5.3354,-5.3293,-5.328,-5.3264,-5.3187,-5.3271,-5.326,-5.3054,-5.313,-5.3032,-5.3022,-5.3031,-5.3027,-5.3028,-5.3144,-5.314,-5.2962,-5.2965,-5.2967,-5.2968,0,0,0,0,0,0,0,-5.3356,-5.3356,-5.3378,-5.3292,-5.3275,-5.3211,-5.3198,-5.3268,-5.3131,-5.3123,-5.3103,-5.3094,-5.3022,-5.3025,-5.3024,-5.3139,-5.2962,-5.2966,-5.2969,-5.297,-5.3414,-5.3423,0,0,0,0,0,0,-5.3378,-5.336,-5.3381,-5.3375,-5.3289,-5.3219,-5.3204,-5.3221,-5.3129,-5.3106,-5.3102,-5.3082,-5.3021,-5.3019,-5.302,-5.3248,-5.2967,-5.2971,-5.2973,-5.3405,-5.3416,-5.3426,0,0,0,0,0,0,-5.3379,-5.3383,-5.3385,-5.3362,-5.3357,-5.3229,-5.3251,-5.3224,-5.3226,-5.3113,-5.3088,-5.313,-5.3014,-5.3014,-5.3118,-5.3241,-5.2973,-5.2977,-5.3394,-5.3408,-5.3421,-5.3707,0,0,0,0,0,0,-5.3379,-5.3384,-5.3458,-5.3365,-5.336,-5.3483,-5.3258,-5.3228,-5.3233,-5.3207,-5.3133,-5.3112,-5.3007,-5.3113,-5.3122,-5.3242,-5.298,-5.3382,-5.34,-5.3416,-5.3686,-5.3729,-5.3765,0,0,0,0,0,-5.3378,-5.3545,-5.3463,-5.3467,-5.3448,-5.3491,-5.3488,-5.3361,-5.3244,-5.3318,-5.3245,-5.3114,-5.3226,-5.3125,-5.3134,-5.3258,-5.3374,-5.3395,-5.3415,-5.3668,-5.372,-5.3764,0,0,0,0,0,0,-5.3659,-5.353,-5.3438,-5.3579,-5.3547,-5.3446,-5.3535,-5.3421,-5.3425,-5.34,-5.3246,-5.3231,-5.3357,-5.3317,-5.3208,-5.3446,-5.3278,-5.3302,-5.3468,-5.3516,-5.3555,-5.3563,-5.2984,0,0,0,0,0,-5.3736,-5.3779,-5.3665,-5.38,-5.3789,-5.3666,-5.3679,-5.3584,-5.3547,-5.3533,-5.3468,-5.3439,-5.3467,-5.3489,-5.3509,-5.3678,-5.3659,-5.3767,-5.3807,-5.384,-5.3863,-5.3949,-5.3996,-5.3493,-5.3493,-5.3493,0,0,-5.3899,-5.3833,-5.387,-5.3855,-5.3819,-5.3869,-5.3656,-5.3718,-5.3755,-5.3543,-5.3637,-5.3588,-5.3546,-5.3684,-5.3741,-5.3654,-5.3997,-5.3866,-5.3894,-5.3898,-5.3975,-5.4023,-5.4066,-5.3507,-5.3505,-5.3502,0,0,-5.4219,-5.4174,-5.428,-5.4248,-5.4196,-5.4112,-5.4138,-5.4053,-5.4012,-5.4102,-5.3944,-5.3986,-5.4038,-5.4014,-5.4009,-5.4319,-5.4199,-5.433,-5.4538,-5.4624,-5.4664,-5.4698,-5.4809,-5.4851,-5.4352,-5.4353,-5.4353,0,-5.4428,-5.4494,-5.4351,-5.4422,-5.4421,-5.4228,-5.4336,-5.4313,-5.4272,-5.4277,-5.4179,-5.4238,-5.4196,-5.4326,-5.4401,-5.4403,-5.4429,-5.4338,-5.4669,-5.4702,-5.4732,-5.4837,-5.4879,-5.4369,-5.4367,-5.4365,-5.4364,0,-5.4754,-5.4802,-5.4895,-5.4856,-5.4864,-5.4955,-5.4828,-5.4854,-5.4758,-5.4686,-5.4781,-5.4723,-5.4727,-5.475,-5.4659,-5.4867,-5.4815,-5.4696,-5.4524,-5.4799,-5.4894,-5.4933,-5.4392,-5.4386,-5.4382,-5.4378,0,0,-5.5251,-5.5128,-5.5165,-5.5144,-5.5071,-5.5107,-5.5189,-5.5189,-5.5216,-5.5194,-5.526,-5.5307,-5.5195,-5.519,-5.5093,-5.5169,-5.5419,-5.5039,-5.5036,-5.5113,-5.5645,-5.5736,-5.5785,-5.5338,-5.5345,-5.535,-5.5649,0,-5.5553,-5.5683,-5.5556,-5.5712,-5.5755,-5.5572,-5.5643,-5.5607,-5.5542,-5.5571,-5.5498,-5.5535,-5.5384,-5.538,-5.5446,-5.5374,-5.5524,-5.5351,-5.54,-5.5404,-5.5418,-5.5834,-5.5931,-5.6216,-5.5685,-5.5692,-5.5696,0,-5.5924,-5.5915,-5.6075,-5.599,-5.6003,-5.6069,-5.6059,-5.6088,-5.6045,-5.5991,-5.5985,-5.5866,-5.5942,-5.5774,-5.5878,-5.5764,-5.5776,-5.5744,-5.5752,-5.5753,-5.5568,-5.5848,-5.6303,-5.6347,-5.5753,-5.5749,-5.5745,0,-5.6272,-5.63,-5.6398,-5.6386,-5.6289,-5.634,-5.6303,-5.625,-5.6258,-5.625,-5.6254,-5.6257,-5.626,-5.6266,-5.6152,-5.6039,-5.6271,-5.6093,-5.6231,-5.6235,-5.629,-5.6288,-5.6755,-5.6297,-5.6296,-5.6295,-5.6295,0,-5.6624,-5.673,-5.6552,-5.6614,-5.6726,-5.6579,-5.6696,-5.664,-5.6594,-5.6643,-5.6485,-5.6535,-5.6381,-5.6416,-5.6328,-5.6428,-5.643,-5.6391,-5.6367,-5.6406,-5.6411,-5.6413,-5.6391,-5.6307,-5.6304,-5.6302,-5.63,0,-5.7032,-5.6917,-5.7013,-5.6912,-5.6889,-5.6977,-5.6891,-5.6945,-5.6867,-5.6931,-5.6938,-5.6818,-5.685,-5.6736,-5.6751,-5.6691,-5.6839,-5.6782,-5.6854,-5.6836,-5.6981,-5.697,-5.7467,-5.7525,-5.703,-5.7035,-5.7039,0,-5.7265,-5.7341,-5.7247,-5.7266,-5.7236,-5.727,-5.7276,-5.7135,-5.7149,-5.7104,-5.7164,-5.7181,-5.7188,-5.7249,-5.7165,-5.7175,-5.7117,-5.729,-5.7118,-5.7155,-5.7121,-5.7118,-5.7126,-5.7328,-5.7334,-5.7339,-5.7343,0,-5.7691,-5.763,-5.7643,-5.7637,-5.7648,-5.7637,-5.7616,-5.7642,-5.749,-5.7514,-5.7542,-5.7547,-5.756,-5.7581,-5.7572,-5.7536,-5.7417,-5.7397,-5.743,-5.7471,-5.751,-5.7492,-5.6953,-5.7387,-5.7382,-5.7379,-5.7377,-5.7375,-5.8019,-5.8077,-5.802,-5.804,-5.8008,-5.7991,-5.8036,-5.7962,-5.7983,-5.7979,-5.7895,-5.7941,-5.7895,-5.7871,-5.7847,-5.7882,-5.7802,-5.785,-5.7862,-5.7876,-5.7901,-5.7503,-5.7881,-5.7879,-5.7878,-5.7877,-5.7876,0,-5.8437,-5.839,-5.841,-5.8383,-5.8399,-5.8279,-5.8249,-5.8272,-5.8313,-5.8278,-5.8287,-5.832,-5.8339,-5.8256,-5.8264,-5.8308,-5.8253,-5.8315,-5.8311,-5.8305,-5.7972,-5.7943,-5.836,-5.8359,-5.8359,-5.8359,-5.8359,-5.8359,-5.8657,-5.8749,-5.8681,-5.8757,-5.8709,-5.875,-5.8743,-5.8728,-5.8698,-5.8742,-5.8755,-5.8699,-5.8645,-5.8647,-5.866,-5.8635,-5.8646,-5.8728,-5.8685,-5.8376,-5.8329,-5.8284,-5.8256,-5.8731,-5.8732,-5.9015,-5.9018,-5.902]},{"header":{"parameterUnit":"m.s-1","parameterCategory":1,"la1":30.2991,"la2":30.254,"lo1":-89.0895,"lo2":-89.0444,"dy":0.0017,"dx":0.0017,"nx":28,"ny":28,"refTime":"2024-09-04T03:00:00:Z","depth":0,"parameterNumber":3,"parameterNumberName":"V-component_of_WINDS"},"data":[0,0,0,0,0,0,0,0,0,0,0,0,0,0,0,0,0,0,0,0,0,0,0,0,0,0,0,0,0,0,0,0,0,0,0,0,0,0,0,0,0,0,0,0,0,0,0,0,0,0,0,0,0,0,0,0,0,0,-1.1013,-1.1012,0,-1.0902,-1.09,-1.0899,-1.0884,-1.0885,-1.0886,-1.0887,-1.0765,-1.0761,-1.0757,0,0,0,0,0,0,0,0,0,0,0,0,0,-1.1205,-1.1202,-1.1013,-1.1012,-1.1011,-1.0902,-1.09,-1.0899,-1.0884,-1.0885,-1.0887,-1.0888,-1.0766,-1.0761,-1.0756,0,0,0,0,0,0,0,0,0,0,0,0,0,-1.111,-1.1201,-1.1014,-1.099,-1.0987,-1.0902,-1.09,-1.0898,-1.0884,-1.0885,-1.0887,-1.0888,-1.0768,-1.0762,-1.0755,-1.0684,0,0,-1.0736,-1.0733,0,0,0,0,0,0,0,0,-1.1116,-1.1103,-1.0995,-1.0992,-1.0988,-1.0909,-1.0923,-1.0826,-1.0883,-1.0923,-1.0887,-1.0889,-1.0811,-1.0801,-1.0776,-1.0678,-1.0673,-1.0735,-1.0731,-1.0729,-1.0727,0,0,0,0,0,0,0,-1.1122,-1.1108,-1.0969,-1.0993,-1.0989,-1.0982,-1.0971,-1.0905,-1.0859,-1.0919,-1.0918,-1.0905,-1.0809,-1.0782,-1.0773,-1.0671,-1.0735,-1.073,-1.0726,-1.0723,-1.0504,-1.0502,0,0,0,0,0,0,-1.1134,-1.1114,-1.0972,-1.0966,-1.1057,-1.0978,-1.0965,-1.0932,-1.086,-1.085,-1.0904,-1.0905,-1.0793,-1.0781,-1.0769,-1.0677,-1.0729,-1.0723,-1.0719,-1.0506,-1.0503,-1.0501,0,0,0,0,0,0,-1.1138,-1.1122,-1.0977,-1.1039,-1.102,-1.0973,-1.0936,-1.0929,-1.0903,-1.0848,-1.0839,-1.0886,-1.0793,-1.0778,-1.0705,-1.0673,-1.072,-1.0714,-1.0508,-1.0505,-1.0502,-1.0495,0,0,0,0,0,0,-1.1144,-1.1124,-1.1098,-1.1039,-1.1017,-1.0917,-1.0935,-1.0926,-1.0893,-1.0893,-1.0829,-1.0819,-1.0794,-1.0714,-1.0698,-1.0665,-1.0709,-1.0511,-1.0507,-1.0503,-1.0498,-1.0492,-1.0488,0,0,0,0,0,-1.1151,-1.1099,-1.1097,-1.108,-1.0984,-1.0916,-1.0903,-1.0876,-1.089,-1.0862,-1.0827,-1.0821,-1.068,-1.0707,-1.0689,-1.0653,-1.0513,-1.0508,-1.0504,-1.05,-1.0493,-1.0488,0,0,0,0,0,0,-1.1153,-1.1091,-1.1087,-1.1016,-1.0971,-1.0913,-1.0877,-1.087,-1.0819,-1.0821,-1.0788,-1.0773,-1.0701,-1.067,-1.0701,-1.0578,-1.0597,-1.0589,-1.0601,-1.0594,-1.0589,-1.0596,-1.0704,0,0,0,0,0,-1.1146,-1.1098,-1.1045,-1.0987,-1.0965,-1.0925,-1.0894,-1.0878,-1.0829,-1.0809,-1.0769,-1.072,-1.0664,-1.0627,-1.0573,-1.0494,-1.0478,-1.046,-1.0455,-1.0451,-1.0443,-1.0396,-1.0387,-1.0487,-1.0487,-1.0487,0,0,-1.1129,-1.1089,-1.106,-1.0986,-1.095,-1.0897,-1.0909,-1.0854,-1.0814,-1.08,-1.0728,-1.0697,-1.064,-1.0563,-1.0526,-1.0534,-1.0413,-1.0446,-1.0443,-1.0437,-1.039,-1.0381,-1.0373,-1.0484,-1.0484,-1.0485,0,0,-1.1071,-1.1038,-1.0984,-1.0948,-1.0894,-1.0867,-1.0854,-1.0797,-1.0776,-1.0705,-1.0692,-1.0643,-1.0548,-1.0507,-1.0474,-1.04,-1.0391,-1.0383,-1.0354,-1.0308,-1.03,-1.0293,-1.0263,-1.0253,-1.0376,-1.0376,-1.0376,0,-1.1056,-1.098,-1.0957,-1.0902,-1.0868,-1.0856,-1.0799,-1.0764,-1.0694,-1.0669,-1.068,-1.0559,-1.052,-1.0432,-1.0414,-1.0388,-1.0369,-1.0389,-1.0304,-1.0297,-1.0289,-1.026,-1.025,-1.0375,-1.0375,-1.0375,-1.0375,0,-1.0962,-1.091,-1.0872,-1.0807,-1.0769,-1.0713,-1.0679,-1.0643,-1.063,-1.0601,-1.0526,-1.0479,-1.0414,-1.0392,-1.0378,-1.0301,-1.0307,-1.0312,-1.0329,-1.0279,-1.0251,-1.024,-1.0374,-1.0374,-1.0374,-1.0374,0,0,-1.0901,-1.0824,-1.0811,-1.078,-1.0719,-1.0676,-1.0618,-1.0557,-1.0525,-1.0477,-1.0425,-1.0345,-1.0348,-1.0311,-1.0292,-1.0252,-1.0192,-1.0261,-1.0259,-1.0247,-1.01,-1.0094,-1.0082,-1.0187,-1.0185,-1.0184,-1.0103,0,-1.0834,-1.0735,-1.0711,-1.0624,-1.0573,-1.056,-1.051,-1.0465,-1.0437,-1.0387,-1.0355,-1.0297,-1.0308,-1.0285,-1.0245,-1.0208,-1.0161,-1.0214,-1.0135,-1.0133,-1.0147,-1.0068,-1.0063,-0.999,-1.0093,-1.0091,-1.0089,0,-1.0742,-1.0694,-1.0602,-1.0546,-1.0524,-1.0479,-1.0419,-1.0373,-1.0321,-1.0303,-1.0261,-1.0246,-1.0182,-1.0205,-1.0115,-1.0151,-1.0117,-1.0094,-1.009,-1.0079,-1.0106,-1.0052,-0.9966,-0.9954,-1.0073,-1.0074,-1.0075,0,-1.0703,-1.0615,-1.0548,-1.0522,-1.0456,-1.0424,-1.0395,-1.0345,-1.0308,-1.0256,-1.0231,-1.0171,-1.0137,-1.0089,-1.0057,-1.0078,-0.9968,-0.9989,-0.9947,-0.9948,-0.9922,-0.9924,-0.9826,-0.9906,-0.9907,-0.9907,-0.9907,0,-1.0629,-1.0572,-1.0529,-1.0488,-1.0423,-1.0396,-1.0331,-1.0301,-1.0256,-1.0206,-1.0192,-1.0144,-1.0106,-1.0052,-1.0027,-0.9953,-0.9939,-0.992,-0.9913,-0.9919,-0.9921,-0.9895,-0.9897,-0.9904,-0.9904,-0.9905,-0.9906,0,-1.0573,-1.0543,-1.0468,-1.0412,-1.0396,-1.0351,-1.0301,-1.0258,-1.023,-1.0167,-1.015,-1.0104,-1.004,-1.0005,-0.9924,-0.9906,-0.9823,-0.9821,-0.9841,-0.9838,-0.9797,-0.98,-0.9676,-0.9657,-0.9753,-0.9752,-0.9751,0,-1.0526,-1.0482,-1.0422,-1.0388,-1.0359,-1.0305,-1.0269,-1.024,-1.0201,-1.0138,-1.0102,-1.0038,-0.9985,-0.9882,-0.984,-0.9777,-0.977,-0.9731,-0.976,-0.9767,-0.9765,-0.9767,-0.9761,-0.9725,-0.9724,-0.9724,-0.9723,0,-1.0444,-1.0432,-1.0381,-1.0324,-1.0282,-1.0235,-1.0188,-1.0161,-1.0124,-1.0081,-1.0017,-0.9976,-0.9894,-0.9828,-0.9762,-0.9728,-0.9717,-0.9715,-0.9701,-0.9705,-0.9718,-0.9707,-0.9824,-0.9717,-0.9718,-0.9718,-0.9718,-0.9719,-1.0389,-1.0349,-1.03,-1.0243,-1.0206,-1.0162,-1.0119,-1.0086,-1.0033,-0.9965,-0.9951,-0.9882,-0.9828,-0.9738,-0.9702,-0.9645,-0.9652,-0.9633,-0.9628,-0.9623,-0.9619,-0.973,-0.9634,-0.9634,-0.9634,-0.9634,-0.9634,0,-1.0304,-1.0272,-1.0221,-1.0157,-1.0111,-1.011,-1.0058,-1.0018,-0.9959,-0.9911,-0.986,-0.9784,-0.972,-0.9673,-0.9607,-0.9571,-0.9564,-0.9554,-0.9555,-0.9546,-0.9619,-0.9636,-0.956,-0.956,-0.956,-0.956,-0.956,-0.956,-1.0254,-1.0185,-1.0166,-1.0077,-1.0045,-0.9979,-0.9949,-0.9908,-0.9869,-0.9786,-0.9734,-0.9705,-0.9656,-0.9587,-0.9527,-0.9515,-0.9489,-0.9479,-0.9465,-0.9534,-0.9541,-0.9549,-0.9564,-0.9475,-0.9475,-0.9397,-0.9396,-0.9396]}]]